Weather History for Seward, AK

Change the Weather History Date:

Thursday, August 28, 2014

  Actual Average Record
Temperature  
Mean Temperature 52 °F -  
Max Temperature 55 °F 59 °F 73 °F (2002)
Min Temperature 50 °F 46 °F 3 °F (1971)
Degree Days  
Heating Degree Days 12    
Growing Degree Days 2 (Base 50)    
Moisture  
Dew Point 50 °F    
Average Humidity 92    
Maximum Humidity 97    
Minimum Humidity 83    
Precipitation  
Precipitation 0.42 in - - ()
Sea Level Pressure  
Sea Level Pressure 29.65 in    
Wind  
Wind Speed 3 mph (NNW)    
Max Wind Speed 8 mph    
Max Gust Speed -    
Visibility 8 miles    
Events Rain    
Averages and records for this station are not official NWS values.
T = Trace of Precipitation, MM = Missing Value Source: NWS Daily Summary

Daily Weather History Graph

Daily Weather History Graph

Search for Another Location

Airport:

Trip Planner

Search our weather history database for the weather conditions in past years. The results will help you decide how hot, cold, wet, or windy it might be!

Date:

Astronomy

Aug. 28, 2014 Rise Set
Actual Time 6:43 AM AKDT 9:12 PM AKDT
Civil Twilight 5:56 AM AKDT 9:58 PM AKDT
Nautical Twilight 4:55 AM AKDT 10:59 PM AKDT
Astronomical Twilight 3:28 AM AKDT 12:23 AM AKDT
Moon 10:42 AM AKDT (8/28) 9:39 PM AKDT (8/28)
Length of Visible Light 16h 01m
Length of Day
14h 29m
Waxing Crescent, 9% of the Moon is Illuminated
Aug 28
Waxing Crescent
Sep 2
First Quarter
Sep 8
Full
Sep 15
Last Quarter
Sep 23
New

Hourly Weather History & Observations

Time (AKDT) Temp. Dew Point Humidity Pressure Visibility Wind Dir Wind Speed Gust Speed Precip Events Conditions
12:02 AM 54.0 °F 50.0 °F 86% 29.72 in 10.0 mi SE 8.1 mph - 0.00 in Rain Light Rain
12:53 AM 54.0 °F 48.9 °F 83% 29.71 in 9.0 mi SSE 8.1 mph - 0.03 in Rain Light Rain
1:53 AM 53.1 °F 50.0 °F 89% 29.71 in 6.0 mi NNW 3.5 mph - 0.05 in Rain Light Rain
2:53 AM 52.0 °F 50.0 °F 93% 29.69 in 6.0 mi Calm Calm - 0.05 in Rain Light Rain
3:53 AM 52.0 °F 51.1 °F 97% 29.68 in 6.0 mi Calm Calm - 0.07 in Rain Light Rain
4:43 AM 51.1 °F 48.9 °F 92% 29.67 in 2.0 mi Calm Calm - 0.04 in Rain Light Rain
4:53 AM 51.1 °F 48.9 °F 92% 29.68 in 3.0 mi Calm Calm - 0.05 in Rain Light Rain
5:05 AM 51.1 °F 48.9 °F 92% 29.67 in 2.5 mi North 3.5 mph - 0.02 in Rain Light Rain
5:13 AM 51.1 °F 48.9 °F 92% 29.67 in 5.0 mi North 4.6 mph - 0.02 in Rain Light Rain
5:53 AM 51.1 °F 50.0 °F 96% 29.67 in 8.0 mi NNW 3.5 mph - 0.06 in Rain Light Rain
6:53 AM 51.1 °F 48.9 °F 92% 29.66 in 8.0 mi Calm Calm - 0.02 in Rain Light Rain
7:18 AM 50.0 °F 48.9 °F 96% 29.65 in 2.5 mi Calm Calm - 0.00 in Rain Light Rain
7:32 AM 51.1 °F 48.9 °F 92% 29.65 in 10.0 mi Calm Calm - 0.00 in Rain Light Rain
7:53 AM 51.1 °F 48.9 °F 92% 29.65 in 4.0 mi NE 3.5 mph - 0.01 in Rain Light Rain
8:53 AM 52.0 °F 50.0 °F 93% 29.65 in 10.0 mi NNW 4.6 mph - 0.00 in Rain Light Rain
9:46 AM 53.1 °F 51.1 °F 93% 29.65 in 10.0 mi Calm Calm - 0.00 in   Overcast
9:53 AM 53.1 °F 51.1 °F 93% 29.65 in 10.0 mi SW 4.6 mph - 0.00 in   Overcast
10:53 AM 54.0 °F 51.1 °F 90% 29.65 in 10.0 mi Calm Calm - 0.00 in Rain Light Rain
11:53 AM 53.1 °F 51.1 °F 93% 29.65 in 10.0 mi Calm Calm - 0.01 in Rain Light Rain
12:53 PM 54.0 °F 51.1 °F 90% 29.65 in 10.0 mi SSE 3.5 mph - 0.00 in Rain Light Rain
1:53 PM 53.1 °F 51.1 °F 93% 29.65 in 10.0 mi South 5.8 mph - 0.01 in Rain Light Rain
2:53 PM 54.0 °F 51.1 °F 90% 29.65 in 10.0 mi South 5.8 mph - 0.00 in   Overcast
3:53 PM 54.0 °F 52.0 °F 93% 29.64 in 10.0 mi SSW 4.6 mph - N/A   Overcast
4:53 PM 55.0 °F 51.1 °F 86% 29.64 in 10.0 mi Calm Calm - N/A   Overcast
5:53 PM 54.0 °F 51.1 °F 90% 29.63 in 10.0 mi Calm Calm - 0.00 in   Overcast
6:53 PM 54.0 °F 51.1 °F 90% 29.63 in 10.0 mi Calm Calm - 0.01 in   Overcast
7:53 PM 53.1 °F 51.1 °F 93% 29.63 in 10.0 mi Calm Calm - 0.01 in Rain Light Rain
8:53 PM 53.1 °F 51.1 °F 93% 29.62 in 10.0 mi North 3.5 mph - 0.01 in Rain Light Rain
9:09 PM 53.1 °F 51.1 °F 93% 29.61 in 4.0 mi Calm Calm - 0.01 in Rain Light Rain
9:53 PM 53.1 °F 50.0 °F 89% 29.61 in 10.0 mi North 4.6 mph - 0.01 in Rain Light Rain
10:53 PM 52.0 °F 50.0 °F 93% 29.61 in 10.0 mi North - - 0.02 in Rain Light Rain
11:53 PM 52.0 °F 50.0 °F 93% 29.60 in 10.0 mi North 4.6 mph - 0.00 in Rain Light Rain